W2PJ Weather Reports


Display with metric or nautical units.
time (UTC)temp
F
wind
direction
speed
MPH
gust
MPH
rain 1hr
in
rain 24hr
in
rain mn
in
humidity
%
barometer
mb
20260509095014 45 154 0.0 0.0 0.00 0.15 0.00 79 1009.0
20260509094515 45 157 0.0 0.0 0.00 0.15 0.00 78 1009.1
20260509094014 45 146 0.0 1.0 0.00 0.15 0.00 77 1009.1
20260509093512 45 152 0.0 1.0 0.00 0.15 0.00 77 1009.2
20260509093019 45 138 0.0 0.0 0.00 0.15 0.00 76 1009.2
20260509092511 45 129 0.0 0.0 0.00 0.15 0.00 75 1009.2
20260509092010 45 138 0.0 1.0 0.00 0.15 0.00 75 1009.1
20260509091511 45 118 0.0 5.0 0.00 0.15 0.00 74 1009.3
20260509091009 45 157 0.0 5.0 0.00 0.15 0.00 73 1009.3
20260509090508 45 86 0.0 0.0 0.00 0.15 0.00 72 1009.4
20260509090007 45 114 0.0 0.0 0.00 0.15 0.00 71 1009.6
20260509085507 45 162 0.0 0.0 0.00 0.15 0.00 70 1009.7
20260509085003 45 112 0.0 0.0 0.00 0.15 0.00 70 1009.7
20260509084508 45 145 0.0 0.0 0.00 0.15 0.00 69 1009.9
20260509084002 45 161 0.0 0.0 0.00 0.15 0.00 68 1009.8
20260509083602 45 119 0.0 0.0 0.00 0.15 0.00 68 1009.9
20260509083100 45 120 0.0 0.0 0.00 0.15 0.00 67 1009.8
20260509082559 44 121 0.0 0.0 0.00 0.15 0.00 66 1009.9
20260509082059 44 112 0.0 0.0 0.00 0.15 0.00 65 1010.0
20260509081559 44 112 0.0 0.0 0.00 0.15 0.00 64 1010.0
20260509081058 44 176 0.0 0.0 0.00 0.15 0.00 64 1010.0
20260509080557 44 138 0.0 1.0 0.00 0.15 0.00 63 1010.1
20260509080058 44 100 0.0 0.0 0.00 0.15 0.00 64 1010.2
20260509075557 44 145 0.0 0.0 0.00 0.20 0.00 64 1010.2
20260509075056 44 126 0.0 1.0 0.00 0.20 0.00 64 1010.2
20260509074602 44 128 0.0 1.0 0.00 0.20 0.00 64 1010.2
20260509074057 44 114 0.0 0.0 0.00 0.20 0.00 64 1010.3
20260509073555 44 161 0.0 0.0 0.00 0.20 0.00 64 1010.3
20260509073055 44 132 0.0 0.0 0.00 0.20 0.00 64 1010.3
20260509072559 44 138 0.0 0.0 0.00 0.20 0.00 64 1010.2
20260509072056 44 159 0.0 0.0 0.00 0.20 0.00 64 1010.2
20260509071600 44 157 0.0 0.0 0.00 0.20 0.00 64 1010.2
20260509071055 44 122 0.0 0.0 0.00 0.20 0.00 65 1010.1
20260509070554 44 138 0.0 0.0 0.00 0.20 0.00 64 1010.1
20260509065552 44 131 0.0 0.0 0.00 0.23 0.00 63 1010.3
20260509065052 44 131 0.0 0.0 0.00 0.23 0.00 63 1010.4
20260509064554 44 126 0.0 0.0 0.00 0.23 0.00 63 1010.3
20260509064050 44 131 0.0 0.0 0.00 0.23 0.00 64 1010.3
20260509063551 44 131 0.0 0.0 0.00 0.23 0.00 67 1010.4
20260509063050 43 138 0.0 0.0 0.00 0.23 0.00 68 1010.5
20260509062549 44 110 0.0 0.0 0.00 0.23 0.00 67 1010.6
20260509062048 43 143 0.0 0.0 0.00 0.23 0.00 68 1010.6
20260509061553 43 117 0.0 0.0 0.00 0.23 0.00 69 1010.7
20260509061047 43 114 0.0 0.0 0.00 0.23 0.00 70 1010.8
20260509060546 43 114 0.0 0.0 0.00 0.23 0.00 70 1010.8
20260509060046 43 119 0.0 0.0 0.00 0.23 0.00 71 1010.9
20260509055545 43 128 0.0 0.0 0.00 0.23 0.00 70 1011.0
20260509055048 43 124 0.0 0.0 0.00 0.23 0.00 71 1011.1
20260509054604 43 133 0.0 0.0 0.00 0.23 0.00 71 1011.1
20260509054044 43 122 0.0 0.0 0.00 0.23 0.00 70 1011.1
20260509053542 44 121 0.0 0.0 0.00 0.23 0.00 69 1011.2
20260509053136 44 124 0.0 0.0 0.00 0.23 0.00 68 1011.3
20260509052543 44 116 0.0 0.0 0.00 0.23 0.00 68 1011.4
20260509052040 44 145 0.0 0.0 0.00 0.23 0.00 67 1011.4
20260509051547 44 128 0.0 0.0 0.00 0.23 0.00 66 1011.4
20260509051039 44 117 0.0 0.0 0.00 0.23 0.00 65 1011.5
20260509050539 45 124 0.0 0.0 0.00 0.23 0.00 65 1011.5
20260509050045 44 114 0.0 0.0 0.00 0.23 0.00 65 1011.6
20260509045536 44 140 0.0 0.0 0.00 0.23 0.00 65 1011.6
20260509045037 44 144 0.0 0.0 0.00 0.23 0.00 66 1011.6
20260509044534 44 134 0.0 0.0 0.00 0.23 0.00 67 1011.6
20260509044032 44 110 0.0 0.0 0.00 0.23 0.00 67 1011.6
20260509043532 43 114 0.0 0.0 0.00 0.23 0.00 68 1011.7
20260509043031 43 122 0.0 0.0 0.00 0.23 0.00 69 1011.7
20260509042531 43 126 0.0 0.0 0.00 0.23 0.00 70 1011.7
20260509042028 42 112 0.0 0.0 0.00 0.23 0.00 71 1011.6
20260509041527 42 116 0.0 0.0 0.00 0.23 0.00 72 1011.7
20260509041026 42 132 0.0 0.0 0.00 0.23 0.00 73 1011.7
20260509040525 42 155 0.0 0.0 0.00 0.23 0.00 73 1011.7
20260509040023 42 138 0.0 0.0 0.00 0.23 0.00 73 1011.7
20260509035526 42 138 0.0 0.0 0.00 0.23 0.23 72 1011.6
20260509035025 42 138 0.0 0.0 0.00 0.23 0.23 71 1011.7
20260509034523 42 140 0.0 0.0 0.00 0.23 0.23 72 1011.6
20260509034022 41 119 0.0 0.0 0.00 0.23 0.23 72 1011.7
20260509033522 42 128 0.0 0.0 0.00 0.23 0.23 71 1011.6
20260509033022 42 162 0.0 0.0 0.00 0.23 0.23 71 1011.6
20260509032522 42 114 0.0 0.0 0.00 0.23 0.23 72 1011.6
20260509032021 41 140 0.0 0.0 0.00 0.23 0.23 72 1011.6
20260509031521 41 145 0.0 0.0 0.00 0.23 0.23 73 1011.6
20260509031021 41 129 0.0 0.0 0.00 0.23 0.23 73 1011.7
20260509030521 41 143 0.0 0.0 0.00 0.23 0.23 73 1011.9
20260509030031 41 128 0.0 0.0 0.00 0.23 0.23 73 1011.8
20260509025521 41 129 0.0 0.0 0.00 0.23 0.23 73 1011.8
20260509025019 41 117 0.0 0.0 0.00 0.23 0.23 73 1011.9
20260509024520 42 141 0.0 0.0 0.00 0.23 0.23 73 1011.9
20260509024019 42 122 0.0 0.0 0.00 0.23 0.23 72 1011.9
20260509023519 42 121 0.0 1.0 0.00 0.23 0.23 73 1012.0
20260509023027 42 154 0.0 1.0 0.00 0.23 0.23 73 1012.0
20260509022523 42 135 0.0 0.0 0.00 0.23 0.23 73 1012.0
20260509022019 42 123 0.0 0.0 0.00 0.23 0.23 72 1012.0
20260509021519 42 132 0.0 0.0 0.00 0.23 0.23 71 1012.0
20260509021018 42 130 0.0 0.0 0.00 0.23 0.23 72 1012.0
20260509020520 41 130 0.0 0.0 0.00 0.23 0.23 74 1012.0
20260509020018 41 127 0.0 0.0 0.00 0.23 0.23 74 1012.0
20260509015518 41 138 0.0 0.0 0.00 0.23 0.23 73 1011.9
20260509015017 42 129 0.0 0.0 0.00 0.23 0.23 73 1011.8
20260509014517 42 135 0.0 0.0 0.00 0.23 0.23 73 1011.8
20260509014017 42 105 0.0 0.0 0.00 0.23 0.23 74 1011.8
20260509013517 41 103 0.0 0.0 0.00 0.23 0.23 75 1011.8
20260509013016 41 102 0.0 0.0 0.00 0.23 0.23 76 1011.6
20260509012516 41 102 0.0 0.0 0.00 0.23 0.23 74 1011.5
20260509012021 42 103 0.0 0.0 0.00 0.23 0.23 73 1011.4
20260509011516 42 102 0.0 0.0 0.00 0.23 0.23 71 1011.4
20260509011015 43 135 0.0 0.0 0.00 0.23 0.23 70 1011.3
20260509010515 43 134 0.0 0.0 0.00 0.23 0.23 68 1011.2
20260509010017 43 134 0.0 0.0 0.00 0.23 0.23 68 1011.2
20260509005517 44 135 0.0 0.0 0.00 0.23 0.23 68 1011.1
20260509005015 44 135 0.0 0.0 0.00 0.23 0.23 66 1011.1
20260509004515 45 134 0.0 0.0 0.00 0.23 0.23 65 1011.1
20260509004015 45 134 0.0 0.0 0.00 0.23 0.23 64 1011.0
20260509003514 46 134 0.0 0.0 0.00 0.23 0.23 62 1011.0
20260509003019 46 136 0.0 0.0 0.00 0.23 0.23 63 1010.8
20260509002514 46 137 0.0 0.0 0.00 0.23 0.23 63 1010.9
20260509002014 47 137 0.0 0.0 0.00 0.23 0.23 60 1010.8
20260509001514 48 214 0.0 0.0 0.00 0.23 0.23 58 1010.8
20260509001016 49 214 0.0 0.0 0.00 0.23 0.23 55 1010.8
20260509000519 49 214 0.0 0.0 0.00 0.23 0.23 53 1010.8
20260509000013 50 214 0.0 0.0 0.00 0.23 0.23 53 1010.7
20260508235514 51 214 0.0 0.0 0.00 0.23 0.23 52 1010.6
20260508235009 51 214 0.0 0.0 0.00 0.23 0.23 51 1010.6
20260508234508 51 215 0.0 0.0 0.00 0.23 0.23 51 1010.6
20260508234009 51 264 0.0 0.0 0.00 0.23 0.23 50 1010.6
20260508233510 51 278 0.0 0.0 0.00 0.23 0.23 50 1010.5
20260508233008 51 253 0.0 0.0 0.00 0.23 0.23 49 1010.5
20260508232508 51 280 0.0 0.0 0.00 0.23 0.23 50 1010.4
20260508232008 51 272 0.0 0.0 0.00 0.23 0.23 49 1010.4
20260508231508 51 272 0.0 0.0 0.00 0.23 0.23 49 1010.4
20260508231009 51 285 0.0 0.0 0.00 0.23 0.23 50 1010.3
20260508230508 51 293 0.0 0.0 0.00 0.23 0.23 49 1010.4
20260508230009 51 296 0.0 0.0 0.00 0.23 0.23 50 1010.4
20260508225510 51 278 0.0 0.0 0.00 0.23 0.23 50 1010.5
20260508225032 51 269 0.0 0.0 0.00 0.23 0.23 50 1010.4
20260508224531 51 287 0.0 0.0 0.00 0.23 0.23 49 1010.4
20260508224029 51 300 0.0 0.0 0.00 0.23 0.23 48 1010.4
20260508223528 51 323 0.0 0.0 0.00 0.23 0.23 48 1010.5
20260508223016 51 253 0.0 10.0 0.00 0.23 0.23 46 1010.5
20260508222534 52 299 1.0 10.0 0.00 0.23 0.23 47 1010.6
20260508222052 52 272 0.0 5.0 0.00 0.23 0.23 49 1010.6
20260508221508 52 305 0.0 0.0 0.00 0.23 0.23 48 1010.6
20260508221028 52 311 0.0 0.0 0.00 0.23 0.23 50 1010.6
20260508220540 52 127 0.0 0.0 0.00 0.23 0.23 50 1010.7
20260508220052 51 276 0.0 0.0 0.00 0.23 0.23 50 1010.7
20260508215610 51 264 0.0 0.0 0.00 0.23 0.23 51 1010.7
20260508215129 52 257 0.0 0.0 0.00 0.23 0.23 49 1010.8
20260508214546 52 312 0.0 3.0 0.00 0.23 0.23 51 1010.7
20260508214104 51 258 0.0 7.0 0.00 0.23 0.23 51 1010.8
20260508213624 51 255 1.0 7.0 0.00 0.23 0.23 50 1010.8
20260508213025 51 290 0.0 0.0 0.00 0.23 0.23 55 1010.8
20260508212544 50 279 0.0 0.0 0.00 0.23 0.23 54 1010.7
20260508212058 50 290 0.0 1.0 0.00 0.23 0.23 53 1010.7
20260508211608 50 251 0.0 4.0 0.00 0.23 0.23 53 1010.7
20260508211020 50 305 0.0 9.0 0.00 0.23 0.23 54 1010.9
20260508210536 50 309 1.0 9.0 0.00 0.23 0.23 54 1010.9
20260508210117 50 278 1.0 8.0 0.00 0.23 0.23 54 1010.9
20260508205514 50 357 0.0 4.0 0.00 0.23 0.23 56 1010.9
20260508205028 49 273 0.0 5.0 0.00 0.23 0.23 54 1011.0
20260508204602 49 258 0.0 9.0 0.00 0.23 0.23 55 1011.0
20260508204119 49 314 1.0 9.0 0.00 0.23 0.23 54 1011.0
20260508203503 49 259 0.0 0.0 0.00 0.23 0.23 59 1010.9
20260508203045 48 204 0.0 1.0 0.00 0.23 0.23 58 1011.0
20260508202550 48 255 0.0 4.0 0.00 0.23 0.23 58 1011.1
20260508202102 49 268 0.0 13.0 0.00 0.23 0.23 58 1011.2
20260508201508 49 303 5.0 13.0 0.01 0.23 0.23 56 1011.2
20260508201022 49 241 2.0 11.0 0.01 0.23 0.23 54 1011.2
20260508200539 49 290 0.0 7.0 0.01 0.23 0.23 61 1011.2
20260508200119 49 301 0.0 7.0 0.01 0.23 0.23 62 1011.3
20260508195512 49 285 0.0 3.0 0.01 0.23 0.23 63 1011.4
20260508194616 49 269 0.0 3.0 0.01 0.23 0.23 64 1011.5
20260508194030 49 251 0.0 8.0 0.01 0.23 0.23 67 1011.4
20260508193548 48 235 0.0 8.0 0.01 0.23 0.23 66 1011.4
20260508193010 48 241 0.0 9.0 0.01 0.23 0.23 65 1011.5
20260508192526 48 253 0.0 10.0 0.01 0.23 0.23 68 1011.6
20260508192044 47 258 0.0 7.0 0.01 0.23 0.23 68 1011.7
20260508191507 47 248 0.0 4.0 0.00 0.22 0.22 72 1011.7
20260508191022 46 237 0.0 5.0 0.00 0.22 0.22 72 1011.7
20260508190538 46 253 0.0 1.0 0.00 0.22 0.22 77 1011.7
20260508190047 45 275 0.0 0.0 0.00 0.22 0.22 74 1011.7
20260508185604 45 259 0.0 0.0 0.00 0.22 0.22 75 1011.7
20260508185120 45 299 0.0 8.0 0.00 0.22 0.22 80 1011.8
20260508184526 45 196 0.0 8.0 0.00 0.22 0.22 73 1012.0
20260508184042 45 255 0.0 10.0 0.00 0.22 0.22 72 1011.9
20260508183602 45 248 0.0 11.0 0.00 0.22 0.22 71 1011.9
20260508183010 45 279 0.0 0.0 0.00 0.22 0.22 73 1012.0
20260508182524 45 316 0.0 0.0 0.00 0.22 0.22 75 1011.9
20260508182046 45 309 0.0 0.0 0.00 0.22 0.22 74 1011.9
20260508181553 45 276 0.0 0.0 0.00 0.22 0.22 73 1012.0
20260508181113 45 290 0.0 6.0 0.00 0.22 0.22 72 1011.9
20260508180634 45 294 0.0 6.0 0.00 0.22 0.22 72 1011.9
20260508180044 45 266 0.0 4.0 0.00 0.22 0.22 70 1011.8
20260508175604 45 230 0.0 1.0 0.00 0.22 0.22 75 1011.9
20260508175121 45 299 0.0 1.0 0.00 0.22 0.22 75 1011.9
20260508174531 44 290 0.0 0.0 0.00 0.22 0.22 78 1012.0
20260508174039 44 300 0.0 0.0 0.00 0.22 0.22 79 1012.0
20260508173602 43 279 0.0 0.0 0.00 0.22 0.22 80 1012.1
20260508173012 43 306 0.0 0.0 0.00 0.22 0.22 80 1012.2
20260508172527 43 304 0.0 0.0 0.00 0.22 0.22 79 1012.2
20260508172044 43 265 0.0 0.0 0.00 0.22 0.22 79 1012.2
20260508171509 43 241 0.0 0.0 0.00 0.22 0.22 79 1012.2
20260508171029 44 247 0.0 0.0 0.00 0.22 0.22 77 1012.2
20260508170551 44 248 0.0 0.0 0.00 0.22 0.22 76 1012.2
20260508170009 44 242 0.0 0.0 0.00 0.22 0.22 77 1012.2
20260508165524 44 248 0.0 0.0 0.00 0.22 0.22 77 1012.2
20260508165042 44 259 0.0 0.0 0.00 0.22 0.22 76 1012.2
20260508164619 44 261 0.0 0.0 0.00 0.22 0.22 76 1012.1
20260508164009 44 228 0.0 0.0 0.00 0.22 0.22 79 1012.2
20260508163529 43 238 0.0 0.0 0.00 0.22 0.22 81 1012.2
20260508163107 43 244 0.0 0.0 0.00 0.22 0.22 81 1012.3
20260508162601 43 213 0.0 0.0 0.00 0.22 0.22 83 1012.2
20260508162122 43 290 0.0 0.0 0.00 0.22 0.22 82 1012.2
20260508161526 43 292 0.0 0.0 0.00 0.22 0.22 87 1012.3
20260508161042 42 272 0.0 0.0 0.00 0.22 0.22 87 1012.4
20260508160558 42 262 0.0 0.0 0.00 0.22 0.22 87 1012.4
20260508160005 42 241 0.0 0.0 0.00 0.22 0.22 89 1012.4
20260508155521 41 249 0.0 0.0 0.00 0.22 0.22 90 1012.5
20260508155042 41 252 0.0 1.0 0.01 0.22 0.22 89 1012.4
20260508154617 41 230 0.0 1.0 0.01 0.22 0.22 90 1012.4
20260508154017 40 252 0.0 0.0 0.01 0.22 0.22 91 1012.4
20260508153536 40 286 0.0 0.0 0.01 0.22 0.22 91 1012.5
20260508153025 40 294 0.0 1.0 0.01 0.22 0.22 91 1012.5
20260508152535 40 273 0.0 1.0 0.01 0.22 0.22 91 1012.5
20260508152055 40 284 0.0 0.0 0.02 0.22 0.22 92 1012.4
20260508151526 39 258 0.0 0.0 0.02 0.22 0.22 92 1012.3
20260508151039 39 238 0.0 0.0 0.02 0.22 0.22 92 1012.3
20260508150555 39 245 0.0 0.0 0.03 0.22 0.22 92 1012.4
20260508150106 39 254 0.0 1.0 0.03 0.22 0.22 92 1012.5
20260508145625 39 258 0.0 1.0 0.04 0.22 0.22 92 1012.5
20260508145009 39 251 0.0 0.0 0.04 0.21 0.21 92 1012.5
20260508144610 39 304 0.0 0.0 0.05 0.21 0.21 92 1012.5
20260508144114 39 248 0.0 0.0 0.06 0.21 0.21 92 1012.4
20260508143632 40 235 0.0 1.0 0.08 0.21 0.21 92 1012.4
20260508143042 40 251 0.0 1.0 0.11 0.21 0.21 91 1012.3
20260508142603 40 217 0.0 0.0 0.12 0.21 0.21 92 1012.3
20260508142125 40 249 0.0 0.0 0.11 0.20 0.20 92 1012.2
20260508141532 39 256 0.0 0.0 0.11 0.20 0.20 92 1012.1
20260508141043 39 238 0.0 1.0 0.11 0.20 0.20 92 1012.0
20260508140559 39 278 0.0 1.0 0.10 0.19 0.19 91 1012.1
20260508140110 39 262 0.0 0.0 0.09 0.18 0.18 92 1012.1
20260508135520 39 247 0.0 0.0 0.09 0.18 0.18 91 1012.1
20260508135041 39 247 0.0 0.0 0.08 0.17 0.17 91 1012.0
20260508134610 39 309 0.0 0.0 0.07 0.16 0.16 89 1012.0
20260508134122 39 331 0.0 0.0 0.06 0.15 0.15 88 1011.9
20260508133509 40 278 0.0 0.0 0.04 0.13 0.13 90 1011.9
20260508133049 41 272 0.0 0.0 0.01 0.10 0.10 90 1012.0
20260508132607 41 285 0.0 0.0 0.00 0.09 0.09 90 1011.9
20260508132123 41 257 0.0 0.0 0.00 0.09 0.09 89 1011.9
20260508131519 41 275 0.0 0.0 0.00 0.09 0.09 88 1011.8
20260508131034 41 282 0.0 0.0 0.00 0.09 0.09 88 1011.7
20260508130555 41 299 0.0 0.0 0.00 0.09 0.09 88 1011.7
20260508130017 42 258 0.0 0.0 0.00 0.09 0.09 88 1011.7
20260508125535 42 280 0.0 0.0 0.00 0.09 0.09 88 1011.6
20260508125058 42 279 0.0 0.0 0.00 0.09 0.09 88 1011.5
20260508124506 42 259 0.0 0.0 0.00 0.09 0.09 88 1011.2
20260508124024 42 255 0.0 0.0 0.00 0.09 0.09 88 1011.0
20260508123539 41 143 0.0 0.0 0.00 0.09 0.09 87 1011.0
20260508123118 42 249 0.0 0.0 0.00 0.09 0.09 88 1011.2
20260508122515 41 257 0.0 0.0 0.00 0.09 0.09 87 1011.2
20260508122038 42 258 0.0 0.0 0.00 0.09 0.09 86 1011.3
20260508121508 42 240 0.0 0.0 0.00 0.09 0.09 88 1011.3
20260508121025 42 244 0.0 0.0 0.00 0.09 0.09 88 1011.3
20260508120542 42 214 0.0 0.0 0.00 0.09 0.09 89 1011.3
20260508120017 41 198 0.0 0.0 0.00 0.09 0.09 90 1011.4
20260508115535 41 138 0.0 0.0 0.00 0.09 0.09 91 1011.3
20260508115051 41 114 0.0 0.0 0.00 0.09 0.09 91 1011.2
20260508114519 40 141 0.0 0.0 0.00 0.09 0.09 91 1011.2
20260508114035 40 148 0.0 0.0 0.00 0.09 0.09 92 1011.5
20260508113557 39 138 0.0 0.0 0.00 0.09 0.09 92 1011.6
20260508113108 39 131 0.0 0.0 0.00 0.09 0.09 92 1011.4
20260508112514 39 119 0.0 0.0 0.00 0.09 0.09 93 1011.5
20260508112035 38 154 0.0 0.0 0.01 0.09 0.09 93 1011.6
20260508111505 38 168 0.0 0.0 0.01 0.09 0.09 93 1011.7
20260508111023 38 141 0.0 0.0 0.01 0.09 0.09 93 1011.7
20260508110539 38 165 0.0 0.0 0.01 0.09 0.09 93 1011.7
20260508110008 37 144 0.0 0.0 0.01 0.09 0.09 93 1011.7
20260508105527 37 180 0.0 0.0 0.01 0.09 0.09 93 1011.6
20260508105049 37 171 0.0 0.0 0.01 0.09 0.09 93 1011.6
20260508104515 36 257 0.0 0.0 0.01 0.09 0.09 93 1011.6
20260508104033 36 162 0.0 0.0 0.01 0.09 0.09 93 1011.4
20260508103551 36 167 0.0 0.0 0.01 0.09 0.09 93 1011.3
20260508103019 36 132 0.0 0.0 0.01 0.09 0.09 93 1011.5
20260508102539 35 130 0.0 0.0 0.01 0.09 0.09 93 1011.6
20260508102056 35 145 0.0 0.0 0.00 0.08 0.08 93 1011.6
20260508101542 35 140 0.0 0.0 0.00 0.08 0.08 93 1011.7
20260508101048 35 145 0.0 0.0 0.00 0.08 0.08 93 1011.6
20260508100559 35 152 0.0 0.0 0.00 0.08 0.08 93 1011.5
20260508100005 34 178 0.0 0.0 0.00 0.08 0.08 93 1011.4
20260508095528 35 149 0.0 0.0 0.00 0.08 0.08 93 1011.3